DAL9363 KLAX-KMRY

Flight info

Callsign DAL9363
Flight time 0h 47m
Altitude 26000
Route GMN7 GMN COREZ MAKRS WIGGL
Aircraft B722/M-SDFGHRWY/C

Departure

Time 2026-04-22 00:17
Airport Los Angeles International Airport (KLAX)

Arrival

Time 2026-04-22 01:05
Airport Monterey Regional Airport (KMRY)
Time Latitude Longitude Altitude Speed Heading
2026-04-21 23:39 33.94674 -118.40852 125 ft 0 kts 118°
2026-04-22 00:03 33.94683 -118.40872 123 ft 4 kts 118°
2026-04-22 00:03 33.94696 -118.40899 123 ft 4 kts 123°
2026-04-22 00:03 33.94709 -118.40909 125 ft 4 kts 158°
2026-04-22 00:04 33.94734 -118.40912 125 ft 4 kts 188°
2026-04-22 00:04 33.94755 -118.40908 126 ft 1 kts 187°
2026-04-22 00:04 33.94758 -118.40908 127 ft 0 kts 187°
2026-04-22 00:11 33.94752 -118.40907 129 ft 2 kts 158°
2026-04-22 00:12 33.94747 -118.40898 129 ft 2 kts 97°
2026-04-22 00:12 33.94754 -118.40853 128 ft 10 kts 78°
2026-04-22 00:12 33.94766 -118.40755 127 ft 13 kts 82°
2026-04-22 00:12 33.94777 -118.40646 129 ft 9 kts 84°
2026-04-22 00:13 33.94822 -118.40598 126 ft 10 kts
2026-04-22 00:13 33.94866 -118.40558 126 ft 9 kts 73°
2026-04-22 00:13 33.94879 -118.40464 128 ft 13 kts 83°
2026-04-22 00:13 33.94892 -118.40337 126 ft 17 kts 83°
2026-04-22 00:14 33.94908 -118.40183 127 ft 20 kts 83°
2026-04-22 00:14 33.94924 -118.40027 129 ft 15 kts 82°
2026-04-22 00:14 33.94947 -118.39936 126 ft 5 kts 44°
2026-04-22 00:14 33.94948 -118.39935 126 ft 0 kts 43°
2026-04-22 00:16 33.94968 -118.39920 126 ft 6 kts 21°
2026-04-22 00:16 33.95019 -118.39922 126 ft 8 kts 334°
2026-04-22 00:16 33.95038 -118.39985 125 ft 10 kts 265°
2026-04-22 00:17 33.95016 -118.40198 125 ft 54 kts 263°
2026-04-22 00:17 33.94945 -118.40902 128 ft 113 kts 263°
2026-04-22 00:17 33.94836 -118.42013 252 ft 146 kts 264°
2026-04-22 00:17 33.94708 -118.43279 736 ft 158 kts 263°
2026-04-22 00:18 33.94556 -118.44636 1276 ft 169 kts 263°
2026-04-22 00:18 33.94409 -118.46079 1817 ft 177 kts 264°
2026-04-22 00:18 33.94319 -118.47573 2365 ft 182 kts 268°
2026-04-22 00:18 33.94285 -118.49120 2888 ft 187 kts 268°
2026-04-22 00:19 33.94236 -118.50697 3408 ft 191 kts 266°
2026-04-22 00:19 33.94121 -118.52303 3918 ft 194 kts 264°
2026-04-22 00:19 33.93985 -118.53932 4420 ft 198 kts 263°
2026-04-22 00:19 33.93847 -118.55672 4851 ft 223 kts 263°
2026-04-22 00:20 33.93691 -118.57651 5321 ft 245 kts 263°
2026-04-22 00:20 33.93536 -118.59683 5785 ft 243 kts 263°
2026-04-22 00:20 33.93376 -118.61719 6235 ft 245 kts 262°
2026-04-22 00:20 33.93215 -118.63770 6664 ft 247 kts 262°
2026-04-22 00:21 33.93054 -118.65825 7077 ft 247 kts 262°
2026-04-22 00:21 33.92898 -118.67890 7506 ft 247 kts 263°
2026-04-22 00:21 33.92736 -118.69954 7923 ft 247 kts 263°
2026-04-22 00:21 33.92574 -118.72015 8352 ft 248 kts 263°
2026-04-22 00:22 33.92413 -118.74083 8783 ft 247 kts 262°
2026-04-22 00:22 33.92254 -118.76124 9216 ft 248 kts 262°
2026-04-22 00:22 33.92092 -118.78193 9658 ft 249 kts 262°
2026-04-22 00:22 33.91929 -118.80271 10114 ft 249 kts 262°
2026-04-22 00:23 33.91764 -118.82365 10489 ft 259 kts 262°
2026-04-22 00:23 33.91666 -118.84641 10867 ft 286 kts 267°
2026-04-22 00:23 33.91765 -118.87131 11270 ft 307 kts 271°
2026-04-22 00:23 33.91911 -118.89689 11651 ft 306 kts 270°
2026-04-22 00:24 33.91984 -118.92249 12013 ft 306 kts 268°
2026-04-22 00:24 33.92032 -118.94815 12370 ft 307 kts 268°
2026-04-22 00:24 33.92106 -118.97387 12739 ft 307 kts 269°
2026-04-22 00:24 33.92208 -118.99948 13189 ft 308 kts 272°
2026-04-22 00:25 33.92743 -119.02474 13690 ft 318 kts 288°
2026-04-22 00:25 33.93767 -119.04862 14155 ft 324 kts 295°
2026-04-22 00:25 33.95019 -119.07138 14637 ft 327 kts 298°
2026-04-22 00:25 33.96290 -119.09410 15093 ft 327 kts 296°
2026-04-22 00:26 33.97471 -119.11743 15548 ft 326 kts 294°
2026-04-22 00:26 33.98637 -119.14092 16019 ft 328 kts 295°
2026-04-22 00:26 33.99849 -119.16432 16495 ft 330 kts 296°
2026-04-22 00:26 34.01224 -119.18671 16965 ft 340 kts 307°
2026-04-22 00:27 34.03038 -119.20552 17501 ft 351 kts 314°
2026-04-22 00:27 34.05058 -119.22214 18001 ft 353 kts 318°
2026-04-22 00:27 34.07094 -119.23809 18490 ft 353 kts 316°
2026-04-22 00:27 34.09085 -119.25532 18929 ft 352 kts 314°
2026-04-22 00:28 34.11050 -119.27297 19360 ft 353 kts 315°
2026-04-22 00:28 34.13056 -119.29029 19816 ft 356 kts 316°
2026-04-22 00:28 34.15093 -119.30747 20283 ft 358 kts 316°
2026-04-22 00:28 34.17128 -119.32495 20737 ft 360 kts 315°
2026-04-22 00:29 34.19171 -119.34276 21213 ft 366 kts 315°
2026-04-22 00:29 34.21261 -119.36086 21734 ft 373 kts 315°
2026-04-22 00:29 34.23394 -119.37916 22226 ft 378 kts 315°
2026-04-22 00:29 34.25543 -119.39766 22735 ft 381 kts 315°
2026-04-22 00:30 34.27702 -119.41635 23238 ft 383 kts 315°
2026-04-22 00:30 34.29878 -119.43520 23746 ft 385 kts 315°
2026-04-22 00:30 34.32062 -119.45407 24173 ft 387 kts 315°
2026-04-22 00:30 34.34258 -119.47308 24608 ft 389 kts 315°
2026-04-22 00:31 34.36465 -119.49222 25049 ft 391 kts 315°
2026-04-22 00:31 34.38683 -119.51145 25505 ft 393 kts 315°
2026-04-22 00:31 34.40912 -119.53082 25964 ft 396 kts 315°
2026-04-22 00:31 34.43144 -119.55097 25989 ft 400 kts 313°
2026-04-22 00:32 34.45313 -119.57180 25994 ft 396 kts 312°
2026-04-22 00:32 34.47468 -119.59260 25983 ft 396 kts 313°
2026-04-22 00:32 34.49646 -119.61299 25988 ft 395 kts 313°
2026-04-22 00:32 34.51801 -119.63303 25987 ft 396 kts 313°
2026-04-22 00:33 34.53976 -119.65357 25973 ft 396 kts 313°
2026-04-22 00:33 34.56146 -119.67420 25974 ft 397 kts 313°
2026-04-22 00:33 34.58324 -119.69481 25971 ft 397 kts 313°
2026-04-22 00:33 34.60505 -119.71537 25987 ft 398 kts 313°
2026-04-22 00:34 34.62718 -119.73632 26046 ft 409 kts 313°
2026-04-22 00:34 34.64975 -119.75778 26099 ft 413 kts 313°
2026-04-22 00:34 34.67235 -119.77908 26104 ft 410 kts 313°
2026-04-22 00:34 34.69491 -119.80042 26103 ft 412 kts 313°
2026-04-22 00:35 34.71745 -119.82184 26100 ft 411 kts 313°
2026-04-22 00:35 34.73997 -119.84325 26103 ft 410 kts 313°
2026-04-22 00:35 34.76248 -119.86459 26098 ft 409 kts 313°
2026-04-22 00:35 34.78483 -119.88585 26102 ft 408 kts 313°
2026-04-22 00:36 34.80715 -119.90710 26094 ft 406 kts 313°
2026-04-22 00:36 34.82941 -119.92830 26096 ft 407 kts 313°
2026-04-22 00:36 34.85171 -119.94956 26103 ft 407 kts 313°
2026-04-22 00:36 34.87403 -119.97084 26103 ft 407 kts 313°
2026-04-22 00:37 34.89638 -119.99218 26095 ft 408 kts 313°
2026-04-22 00:37 34.91870 -120.01349 26096 ft 408 kts 313°
2026-04-22 00:37 34.94104 -120.03480 26102 ft 408 kts 313°
2026-04-22 00:37 34.96329 -120.05605 26082 ft 406 kts 313°
2026-04-22 00:38 34.98552 -120.07734 26102 ft 406 kts 313°
2026-04-22 00:38 35.00770 -120.09862 26093 ft 406 kts 313°
2026-04-22 00:38 35.02994 -120.11992 26114 ft 406 kts 313°
2026-04-22 00:38 35.05208 -120.14113 26109 ft 404 kts 313°
2026-04-22 00:39 35.07420 -120.16233 26102 ft 404 kts 313°
2026-04-22 00:39 35.09624 -120.18353 26103 ft 403 kts 313°
2026-04-22 00:39 35.11830 -120.20475 26114 ft 404 kts 313°
2026-04-22 00:39 35.14032 -120.22590 26106 ft 403 kts 313°
2026-04-22 00:40 35.16236 -120.24711 26106 ft 403 kts 313°
2026-04-22 00:40 35.18449 -120.26817 26105 ft 404 kts 313°
2026-04-22 00:40 35.20706 -120.28874 26109 ft 405 kts 315°
2026-04-22 00:40 35.22983 -120.30905 26106 ft 405 kts 314°
2026-04-22 00:41 35.25241 -120.32965 26107 ft 404 kts 314°
2026-04-22 00:41 35.27480 -120.35040 26102 ft 404 kts 314°
2026-04-22 00:41 35.29697 -120.37078 26101 ft 404 kts 314°
2026-04-22 00:41 35.31941 -120.39121 26102 ft 402 kts 314°
2026-04-22 00:42 35.34181 -120.41171 26101 ft 401 kts 314°
2026-04-22 00:42 35.36410 -120.43222 26101 ft 401 kts 314°
2026-04-22 00:42 35.38639 -120.45274 26102 ft 401 kts 314°
2026-04-22 00:42 35.40869 -120.47321 26103 ft 400 kts 314°
2026-04-22 00:43 35.43100 -120.49371 26100 ft 401 kts 314°
2026-04-22 00:43 35.45332 -120.51424 26116 ft 401 kts 314°
2026-04-22 00:43 35.47560 -120.53477 26118 ft 399 kts 314°
2026-04-22 00:43 35.49777 -120.55521 26120 ft 399 kts 314°
2026-04-22 00:44 35.51992 -120.57566 26118 ft 398 kts 314°
2026-04-22 00:44 35.54228 -120.59587 26119 ft 400 kts 315°
2026-04-22 00:44 35.56526 -120.61537 26121 ft 402 kts 316°
2026-04-22 00:44 35.58841 -120.63468 26123 ft 401 kts 316°
2026-04-22 00:45 35.61122 -120.65438 26123 ft 401 kts 315°
2026-04-22 00:45 35.63389 -120.67426 26179 ft 401 kts 315°
2026-04-22 00:45 35.65655 -120.69376 26126 ft 395 kts 315°
2026-04-22 00:45 35.67917 -120.71310 26116 ft 396 kts 315°
2026-04-22 00:46 35.70175 -120.73262 25566 ft 395 kts 315°
2026-04-22 00:46 35.72405 -120.75191 24922 ft 387 kts 315°
2026-04-22 00:46 35.74580 -120.77065 24249 ft 377 kts 315°
2026-04-22 00:46 35.76698 -120.78897 23561 ft 367 kts 314°
2026-04-22 00:47 35.78756 -120.80681 22843 ft 357 kts 314°
2026-04-22 00:47 35.80757 -120.82416 22244 ft 347 kts 314°
2026-04-22 00:47 35.82704 -120.84102 21656 ft 337 kts 314°
2026-04-22 00:47 35.84567 -120.85719 21112 ft 327 kts 314°
2026-04-22 00:48 35.86405 -120.87317 20567 ft 319 kts 314°
2026-04-22 00:48 35.88223 -120.88897 20022 ft 312 kts 314°
2026-04-22 00:48 35.89981 -120.90426 19504 ft 306 kts 314°
2026-04-22 00:48 35.91688 -120.91910 19002 ft 302 kts 314°
2026-04-22 00:49 35.93387 -120.93388 18542 ft 296 kts 314°
2026-04-22 00:49 35.95058 -120.94839 18041 ft 291 kts 314°
2026-04-22 00:49 35.96701 -120.96276 17514 ft 288 kts 314°
2026-04-22 00:49 35.98327 -120.97697 17053 ft 286 kts 315°
2026-04-22 00:50 35.99968 -120.99132 16534 ft 291 kts 316°
2026-04-22 00:50 36.01627 -121.00572 16044 ft 292 kts 316°
2026-04-22 00:50 36.03287 -121.02019 15610 ft 296 kts 317°
2026-04-22 00:50 36.05028 -121.03556 15211 ft 310 kts 317°
2026-04-22 00:51 36.06794 -121.05087 14809 ft 310 kts 318°
2026-04-22 00:51 36.08557 -121.06617 14393 ft 310 kts 318°
2026-04-22 00:51 36.10317 -121.08160 13999 ft 311 kts 319°
2026-04-22 00:51 36.12080 -121.09707 13554 ft 311 kts 319°
2026-04-22 00:52 36.13847 -121.11251 13097 ft 310 kts 319°
2026-04-22 00:52 36.15607 -121.12791 12652 ft 310 kts 319°
2026-04-22 00:52 36.17364 -121.14333 12206 ft 310 kts 320°
2026-04-22 00:52 36.19096 -121.15852 11780 ft 309 kts 320°
2026-04-22 00:53 36.20845 -121.17386 11349 ft 307 kts 320°
2026-04-22 00:53 36.22587 -121.18914 10911 ft 306 kts 320°
2026-04-22 00:53 36.24320 -121.20437 10507 ft 303 kts 320°
2026-04-22 00:53 36.26024 -121.21934 10087 ft 298 kts 320°
2026-04-22 00:54 36.27686 -121.23393 9991 ft 288 kts 320°
2026-04-22 00:54 36.29309 -121.24822 9985 ft 285 kts 320°
2026-04-22 00:54 36.30922 -121.26246 9986 ft 285 kts 320°
2026-04-22 00:54 36.32524 -121.27655 9985 ft 277 kts 320°
2026-04-22 00:55 36.34080 -121.29024 9986 ft 273 kts 320°
2026-04-22 00:55 36.35627 -121.30391 9996 ft 273 kts 320°
2026-04-22 00:55 36.38209 -121.32670 9993 ft 272 kts 320°
2026-04-22 00:56 36.39712 -121.33991 9992 ft 259 kts 320°
2026-04-22 00:56 36.41164 -121.35286 9991 ft 256 kts 317°
2026-04-22 00:56 36.42355 -121.36881 9813 ft 251 kts 298°
2026-04-22 00:56 36.43167 -121.38822 9203 ft 253 kts 289°
2026-04-22 00:57 36.43806 -121.40830 8610 ft 247 kts 288°
2026-04-22 00:57 36.44448 -121.42787 8131 ft 243 kts 290°
2026-04-22 00:57 36.45127 -121.44697 7643 ft 242 kts 290°
2026-04-22 00:57 36.45815 -121.46638 7192 ft 248 kts 290°
2026-04-22 00:58 36.46506 -121.48623 6747 ft 252 kts 290°
2026-04-22 00:58 36.47219 -121.50628 6275 ft 256 kts 292°
2026-04-22 00:58 36.47970 -121.52649 5813 ft 256 kts 291°
2026-04-22 00:58 36.48653 -121.54644 5315 ft 246 kts 289°
2026-04-22 00:59 36.49282 -121.56572 4811 ft 237 kts 289°
2026-04-22 00:59 36.49903 -121.58403 4608 ft 217 kts 290°
2026-04-22 00:59 36.50465 -121.60044 4584 ft 195 kts 288°
2026-04-22 00:59 36.50955 -121.61518 4563 ft 174 kts 288°
2026-04-22 01:00 36.51411 -121.62851 4352 ft 165 kts 288°
2026-04-22 01:00 36.51829 -121.64108 4276 ft 150 kts 288°
2026-04-22 01:00 36.52225 -121.65285 4120 ft 148 kts 287°
2026-04-22 01:00 36.52625 -121.66451 3902 ft 149 kts 288°
2026-04-22 01:01 36.53024 -121.67630 3696 ft 148 kts 288°
2026-04-22 01:01 36.53420 -121.68802 3531 ft 145 kts 288°
2026-04-22 01:01 36.53814 -121.69961 3359 ft 145 kts 289°
2026-04-22 01:01 36.54201 -121.71131 3217 ft 144 kts 290°
2026-04-22 01:02 36.54599 -121.72286 3144 ft 147 kts 290°
2026-04-22 01:02 36.55008 -121.73461 2953 ft 147 kts 289°
2026-04-22 01:02 36.55384 -121.74617 2538 ft 140 kts 290°
2026-04-22 01:02 36.55751 -121.75733 2217 ft 139 kts 291°
2026-04-22 01:03 36.56134 -121.76846 1803 ft 140 kts 291°
2026-04-22 01:03 36.56510 -121.77962 1474 ft 140 kts 289°
2026-04-22 01:03 36.56882 -121.79062 1212 ft 135 kts 290°
2026-04-22 01:03 36.57256 -121.80130 910 ft 137 kts 289°
2026-04-22 01:04 36.57636 -121.81275 701 ft 146 kts 288°
2026-04-22 01:04 36.58024 -121.82428 464 ft 144 kts 287°
2026-04-22 01:04 36.58406 -121.83562 261 ft 137 kts 288°
2026-04-22 01:04 36.58713 -121.84494 223 ft 70 kts 293°
2026-04-22 01:05 36.58820 -121.84806 216 ft 34 kts 294°
2026-04-22 01:05 36.58882 -121.84988 207 ft 10 kts 290°
2026-04-22 01:05 36.58864 -121.85051 207 ft 5 kts 208°
2026-04-22 01:05 36.58860 -121.85053 207 ft 0 kts 204°
2026-04-22 01:06 36.58847 -121.85060 200 ft 3 kts 197°
2026-04-22 01:06 36.58821 -121.85064 202 ft 4 kts 185°
2026-04-22 01:07 36.58800 -121.85076 200 ft 3 kts 226°
2026-04-22 01:07 36.58794 -121.85086 207 ft 0 kts 239°